TimeEST,TemperatureF,Dew PointF,Humidity,Sea Level PressureIn,VisibilityMPH,Wind Direction,Wind SpeedMPH,Gust SpeedMPH,PrecipitationIn,Events,Conditions,WindDirDegrees,DateUTC
12:44 AM,37.4,28.4,70,30.04,7.0,West,15.0,33.4,0.00,Rain,Light Rain,280,2013-01-10 05:44:00
12:54 AM,37.9,28.0,68,30.05,10.0,West,15.0,32.2,0.00,,Mostly Cloudy,280,2013-01-10 05:54:00
1:54 AM,39.9,23.0,51,30.10,10.0,WNW,19.6,31.1,N/A,,Mostly Cloudy,290,2013-01-10 06:54:00
2:54 AM,37.9,25.0,60,30.14,9.0,WNW,9.2,24.2,0.00,,Mostly Cloudy,300,2013-01-10 07:54:00
3:54 AM,39.0,19.9,46,30.20,10.0,WNW,12.7,27.6,N/A,,Overcast,300,2013-01-10 08:54:00
4:54 AM,37.9,19.9,48,30.25,10.0,WNW,10.4,-,N/A,,Overcast,290,2013-01-10 09:54:00
5:54 AM,37.0,19.9,50,30.27,10.0,WNW,11.5,18.4,N/A,,Partly Cloudy,300,2013-01-10 10:54:00
6:54 AM,37.0,18.0,46,30.32,10.0,WNW,13.8,20.7,N/A,,Clear,300,2013-01-10 11:54:00
7:54 AM,35.1,18.0,50,30.37,10.0,Calm,Calm,-,N/A,,Clear,0,2013-01-10 12:54:00
8:54 AM,37.0,19.0,48,30.38,10.0,West,6.9,-,N/A,,Clear,270,2013-01-10 13:54:00
9:54 AM,39.0,19.0,45,30.41,10.0,NW,10.4,18.4,N/A,,Clear,320,2013-01-10 14:54:00
10:54 AM,39.9,19.0,43,30.41,10.0,WNW,16.1,25.3,N/A,,Clear,300,2013-01-10 15:54:00
11:54 AM,41.0,19.0,41,30.40,10.0,NW,13.8,21.9,N/A,,Clear,310,2013-01-10 16:54:00
12:54 PM,41.0,19.0,41,30.41,10.0,West,9.2,-,N/A,,Clear,270,2013-01-10 17:54:00
1:54 PM,42.1,19.0,40,30.43,10.0,NW,8.1,20.7,N/A,,Clear,310,2013-01-10 18:54:00
2:54 PM,41.0,19.0,41,30.45,10.0,Variable,5.8,16.1,N/A,,Clear,0,2013-01-10 19:54:00
3:54 PM,39.9,19.9,45,30.46,10.0,WNW,9.2,19.6,N/A,,Clear,300,2013-01-10 20:54:00
4:54 PM,37.0,19.0,48,30.50,10.0,Calm,Calm,-,N/A,,Clear,0,2013-01-10 21:54:00
5:54 PM,34.0,19.0,54,30.50,10.0,Variable,6.9,19.6,N/A,,Clear,0,2013-01-10 22:54:00
6:54 PM,34.0,19.0,54,30.51,10.0,Variable,3.5,-,N/A,,Clear,0,2013-01-10 23:54:00
7:54 PM,33.1,19.0,56,30.53,10.0,Variable,4.6,-,N/A,,Clear,0,2013-01-11 00:54:00
8:54 PM,28.9,19.0,67,30.56,10.0,NE,4.6,-,N/A,,Clear,50,2013-01-11 01:54:00
9:54 PM,26.1,19.9,78,30.58,10.0,Calm,Calm,-,N/A,,Clear,0,2013-01-11 02:54:00
10:54 PM,26.1,19.9,78,30.56,10.0,NE,3.5,-,N/A,,Clear,40,2013-01-11 03:54:00
11:54 PM,25.0,19.0,78,30.57,10.0,Calm,Calm,-,N/A,,Clear,0,2013-01-11 04:54:00